Location: Geremba
(10.4250°N, 67.2394°W)
Time: 11:44:00
(UTC+00:00)

Cosmos 1455 Rocket - Pass Details

Date: 23 May 2024
Orbit: 602 x 625 km, 82.5° (Epoch: 21 June)

Event Time Altitude Azimuth Distance (km) Brightness Sun altitude
Rises 09:16:49 0° 340° (NNW) 2,874 6.5 -12.0°
Reaches altitude 10° 09:19:12 10° 331° (NNW) 1,974 5.6 -11.5°
Maximum altitude 09:23:06 32° 267° (W) 1,057 3.8 -10.6°
Drops below altitude 10° 09:27:02 10° 204° (SSW) 1,985 5.2 -9.7°
Sets 09:29:27 0° 194° (SSW) 2,894 6.1 -9.2°
